STARLINK-36041

Last updated on Mon Dec 15 2025 00:02:11 GMT+0000 (Coordinated Universal Time)

1 66798U 25278H 25348.25003472 -.01261904 00000+0 -64745-2 0 9997 2 66798 42.9971 242.7983 0001927 275.9987 113.3683 15.82985857 3041
UTC large
Height (km)
Speed (km/s)
/
Latitude / Longitude
Inclination (degrees)
Orbital Period (minutes)
Azimuth
Elevation
Range (km)
Doppler Factor

Next 0 passes for location: London (51.5072 / 0.1276)

Sorry there are no passes over London.